Change the Weather History Date:

Saturday, January 25, 2014

  Actual Average Record
Temperature  
Mean Temperature 20 °F 29 °F  
Max Temperature 26 °F 36 °F 74 °F (1950)
Min Temperature 13 °F 22 °F 1 °F (2004)
Degree Days  
Heating Degree Days 45 36  
Month to date heating degree days 978 900  
Since 1 July heating degree days 3116 3025  
Cooling Degree Days 0    
Month to date cooling degree days 0  
Year to date cooling degree days 0  
Moisture  
Dew Point 15 °F    
Average Humidity 68    
Maximum Humidity 92    
Minimum Humidity 43    
Precipitation  
Precipitation 0.06 in 0.06 in 0.51 in (1993)
Month to date precipitation 1.45 2.28  
Sea Level Pressure  
Sea Level Pressure 29.51 in    
Wind  
Wind Speed 17 mph (WSW)    
Max Wind Speed 29 mph    
Max Gust Speed 41 mph    
Visibility 3 miles    
Events Fog , Snow    
T = Trace of Precipitation, MM = Missing Value Source: NWS Daily Summary

Daily Weather History Graph

Daily Weather History Graph

Search for Another Location

Airport or City:

Trip Planner

Search our weather history database for the weather conditions in past years. The results will help you decide how hot, cold, wet, or windy it might be!

Date:

Astronomy

Jan. 25, 2014 Rise Set
Actual Time 7:37 AM EST 5:32 PM EST
Civil Twilight 7:08 AM EST 6:02 PM EST
Nautical Twilight 6:35 AM EST 6:35 PM EST
Astronomical Twilight 6:03 AM EST 7:07 PM EST
Moon 2:07 AM EST (1/25) 12:32 PM EST (1/25)
Length of Visible Light 10h 54m
Length of Day
9h 55m
Waning Crescent, 34% of the Moon is Illuminated
Jan 25
Waning Crescent
Jan 30
New
Feb 6
First Quarter
Feb 14
Full
Feb 22
Last Quarter

Hourly Weather History & Observations

Time (EST) Temp. Windchill Dew Point Humidity Pressure Visibility Wind Dir Wind Speed Gust Speed Precip Events Conditions
12:53 AM 18.0 °F 1.7 °F -0.0 °F 45% 29.83 in 10.0 mi SSW 19.6 mph 28.8 mph N/A   Clear
1:53 AM 19.0 °F 4.5 °F -0.0 °F 43% 29.78 in 10.0 mi SSW 16.1 mph 34.5 mph N/A   Mostly Cloudy
2:53 AM 19.9 °F 4.8 °F 1.0 °F 44% 29.75 in 10.0 mi SW 18.4 mph 38.0 mph N/A   Overcast
3:53 AM 19.9 °F 2.8 °F 7.0 °F 57% 29.71 in 10.0 mi SW 24.2 mph 41.4 mph N/A   Overcast
4:53 AM 19.0 °F 2.7 °F 10.0 °F 68% 29.68 in 3.0 mi SSW 20.7 mph 29.9 mph 0.00 in Snow Light Snow
5:00 AM 19.4 °F 6.0 °F 10.4 °F 68% 29.60 in 2.5 mi SW 13.8 mph 28.8 mph 0.00 in Snow Light Snow
5:38 AM 17.6 °F 4.3 °F 12.2 °F 79% 29.59 in 1.8 mi SSW 12.7 mph 24.2 mph 0.00 in Snow Light Snow
5:53 AM 18.0 °F 4.2 °F 12.9 °F 81% 29.65 in 1.5 mi SSW 13.8 mph 25.3 mph 0.00 in Snow Light Snow
6:53 AM 18.0 °F 2.2 °F 14.0 °F 84% 29.62 in 1.5 mi SSW 18.4 mph 25.3 mph 0.00 in Snow Light Snow
7:27 AM 17.6 °F 3.2 °F 14.0 °F 86% 29.54 in 0.8 mi SSW 15.0 mph 28.8 mph 0.00 in Snow Light Snow
7:53 AM 18.0 °F 1.3 °F 15.1 °F 88% 29.59 in 0.5 mi SSW 20.7 mph 26.5 mph 0.01 in Fog , Snow Snow
8:11 AM 19.4 °F 4.5 °F 15.8 °F 86% 29.52 in 0.2 mi SSW 17.3 mph 27.6 mph 0.00 in Fog , Snow Snow
8:23 AM 19.4 °F 5.0 °F 15.8 °F 86% 29.51 in 0.5 mi SSW 16.1 mph 25.3 mph 0.00 in Fog , Snow Snow
8:53 AM 19.0 °F 3.6 °F 16.0 °F 88% 29.56 in 0.5 mi SSW 18.4 mph 25.3 mph 0.00 in Fog , Snow Snow
9:34 AM 19.4 °F 3.6 °F 15.8 °F 86% 29.47 in 0.5 mi SSW 19.6 mph 29.9 mph 0.01 in Fog , Snow Snow
9:53 AM 19.9 °F 3.9 °F 16.0 °F 85% 29.53 in 0.8 mi SSW 20.7 mph 33.4 mph 0.01 in Snow Light Snow
10:25 AM 21.2 °F 6.8 °F 17.6 °F 86% 29.46 in 0.5 mi SW 17.3 mph 26.5 mph 0.00 in Fog , Snow Snow
10:41 AM 21.2 °F 7.3 °F 17.6 °F 86% 29.45 in 0.5 mi SW 16.1 mph 36.8 mph 0.00 in Fog , Snow Snow
10:53 AM 21.0 °F 5.7 °F 18.0 °F 88% 29.51 in 0.5 mi SW 19.6 mph 28.8 mph 0.00 in Fog , Snow Light Snow
11:06 AM 21.2 °F 6.8 °F 17.6 °F 86% 29.44 in 0.8 mi SW 17.3 mph 26.5 mph 0.00 in Snow Light Snow
11:43 AM 21.2 °F 6.8 °F 17.6 °F 86% 29.42 in 0.5 mi SW 17.3 mph 28.8 mph 0.00 in Fog , Snow Snow
11:53 AM 21.9 °F 9.2 °F 18.0 °F 85% 29.47 in 0.8 mi SW 13.8 mph 26.5 mph 0.00 in Snow Light Snow
12:53 PM 23.0 °F 8.7 °F 19.0 °F 85% 29.43 in 0.8 mi SW 18.4 mph 29.9 mph 0.00 in Snow Light Snow
12:58 PM 23.0 °F 10.1 °F 19.4 °F 86% 29.37 in 1.0 mi SW 15.0 mph 25.3 mph 0.00 in Snow Light Snow
1:06 PM 23.0 °F 9.6 °F 19.4 °F 86% 29.37 in 1.2 mi SW 16.1 mph 27.6 mph 0.00 in Snow Light Snow
1:53 PM 23.0 °F 9.6 °F 19.0 °F 85% 29.42 in 1.2 mi WSW 16.1 mph 24.2 mph 0.00 in Snow Light Snow
2:14 PM 24.8 °F 13.4 °F 19.4 °F 80% 29.36 in 2.5 mi WSW 12.7 mph 25.3 mph 0.00 in Snow Light Snow
2:23 PM 24.8 °F 12.9 °F 19.4 °F 80% 29.36 in 4.0 mi WSW 13.8 mph 25.3 mph 0.00 in Snow Light Snow
2:38 PM 24.8 °F 12.9 °F 19.4 °F 80% 29.37 in 2.5 mi SW 13.8 mph 25.3 mph 0.00 in Snow Light Snow
2:53 PM 25.0 °F 13.1 °F 19.0 °F 78% 29.42 in 2.0 mi WSW 13.8 mph 23.0 mph 0.00 in Snow Light Snow
3:04 PM 24.8 °F 11.5 °F 19.4 °F 80% 29.37 in 5.0 mi WSW 17.3 mph 26.5 mph 0.00 in Snow Light Snow
3:44 PM 24.8 °F 14.6 °F 19.4 °F 80% 29.38 in 1.8 mi SW 10.4 mph 18.4 mph 0.00 in Snow Light Snow
3:50 PM 24.8 °F 13.4 °F 19.4 °F 80% 29.38 in 0.5 mi SW 12.7 mph 18.4 mph 0.00 in Fog , Snow Snow
3:53 PM 24.1 °F 13.7 °F 21.0 °F 88% 29.44 in 0.5 mi SW 10.4 mph 18.4 mph 0.00 in Fog , Snow Snow
4:01 PM 24.8 °F 16.9 °F 21.2 °F 86% 29.38 in 0.2 mi SW 6.9 mph - 0.01 in Fog , Snow Snow
4:07 PM 24.8 °F 16.1 °F 21.2 °F 86% 29.39 in 0.8 mi SW 8.1 mph - 0.01 in Snow Light Snow
4:11 PM 24.8 °F 16.9 °F 21.2 °F 86% 29.38 in 0.5 mi SW 6.9 mph - 0.01 in Fog , Snow Snow
4:31 PM 24.8 °F 16.9 °F 21.2 °F 86% 29.39 in 0.5 mi WSW 6.9 mph - 0.02 in Fog , Snow Snow
4:50 PM 24.8 °F 14.0 °F 21.2 °F 86% 29.40 in 0.2 mi WSW 11.5 mph 17.3 mph 0.03 in Fog , Snow Snow
4:53 PM 24.1 °F 12.5 °F 21.9 °F 91% 29.45 in 0.2 mi West 12.7 mph 19.6 mph 0.03 in Fog , Snow Snow
5:27 PM 21.2 °F 6.8 °F 19.4 °F 93% 29.44 in 1.0 mi West 17.3 mph 26.5 mph 0.01 in Snow Light Snow
5:30 PM 21.2 °F 7.8 °F 19.4 °F 93% 29.44 in 3.0 mi WNW 15.0 mph 26.5 mph 0.01 in Snow Light Snow
5:37 PM 23.0 °F 9.6 °F 19.4 °F 86% 29.45 in 7.0 mi West 16.1 mph 24.2 mph 0.01 in Snow Light Snow
5:48 PM 23.0 °F 8.0 °F 17.6 °F 80% 29.46 in 9.0 mi West 20.7 mph 31.1 mph 0.01 in   Overcast
5:53 PM 23.0 °F 8.7 °F 15.1 °F 72% 29.52 in 6.0 mi WNW 18.4 mph 39.1 mph 0.01 in Snow Light Snow
6:08 PM 21.2 °F 6.0 °F 15.8 °F 80% 29.48 in 2.5 mi West 19.6 mph 32.2 mph 0.00 in Snow Light Snow
6:17 PM 21.2 °F 6.8 °F 15.8 °F 80% 29.49 in 4.0 mi West 17.3 mph 32.2 mph 0.00 in Snow Light Snow
6:26 PM 21.2 °F 6.4 °F 15.8 °F 80% 29.49 in 7.0 mi West 18.4 mph 27.6 mph 0.00 in   Overcast
6:48 PM 21.2 °F 7.3 °F 12.2 °F 68% 29.51 in 9.0 mi WNW 16.1 mph 28.8 mph 0.00 in   Overcast
6:53 PM 21.0 °F 7.1 °F 12.9 °F 71% 29.58 in 10.0 mi West 16.1 mph 26.5 mph 0.00 in   Overcast
7:53 PM 19.9 °F 7.3 °F 10.9 °F 68% 29.65 in 8.0 mi WNW 12.7 mph 25.3 mph 0.00 in Snow Light Snow
8:53 PM 18.0 °F -0.2 °F 7.0 °F 62% 29.70 in 10.0 mi WNW 25.3 mph 36.8 mph 0.00 in   Overcast
9:53 PM 15.1 °F -0.1 °F 1.9 °F 56% 29.75 in 10.0 mi West 15.0 mph 28.8 mph N/A   Scattered Clouds
10:53 PM 14.0 °F -0.8 °F 1.0 °F 56% 29.78 in 10.0 mi West 13.8 mph 23.0 mph N/A   Mostly Cloudy
11:53 PM 12.9 °F -2.2 °F 1.9 °F 62% 29.81 in 10.0 mi WNW 13.8 mph 21.9 mph N/A   Overcast